Погода в Комарове

Россия / Республика Северная Осетия — Алания     43°44′52″N   44°45′34″E
темп.,
°C
ветер,
м/с
пор.,
м/с
влажн.,
%
обл.,
%
осадки,
мм/ч
давл.,
гПа
погр.,
м
15 мая, сб
сб1500:00+16в11700 0.0 101111
03:00+17з22820 0.0 101111
06:00+18з23825 0.0 101292
09:00+25зсз23645 0.0 1012531
12:00+29сз11535 0.0 10121176
15:00+30ю014912 0.0 10111661
18:00+28зсз1261100 0.0 101121
21:00+20всв1273100 0.3 101219
16 мая, вс
вс1600:00+18зсз1179100 0.0 101111
03:00+17сз118530 0.0 101011
06:00+19всв11805 0.0 101058
09:00+24всв22635 0.0 1009545
12:00+28всв33435 0.0 1008858
15:00+30вюв34405 0.0 10061219
18:00+26в48530 0.0 1005190
21:00+19всв34495 0.0 100649
17 мая, пн
пн1700:00+17в125129 0.0 100511
03:00+16юз00545 0.0 100411
06:00+18вюв11625 0.0 100537
09:00+24всв344857 0.0 1005425
12:00+29в45360 0.0 1004774
15:00+31в34321 0.0 10031182
18:00+26всв35556 0.0 100387
21:00+20зюз141986100 2.3 1008567
18 мая, вт
вт1800:00+19з4891100 0.9 1008321
03:00+17з51192100 0.9 1008471
06:00+17з61187100 0.1 1011670
09:00+18зсз6983100 0.7 1012764
12:00+20зсз4572100 0.3 1012854
15:00+22з3566100 0.3 10121030
18:00+22сз236771 0.1 1012383
21:00+17зюз348114 0.1 101454
19 мая, ср
ср1900:00+16зюз338796 0.0 101349
03:00+15з228527 0.0 101423
06:00+16зюз23820 0.0 1015106
09:00+22сз21620 0.0 1014665
12:00+26св22470 0.0 10141269
15:00+28всв333954 0.0 10131533
18:00+26вюв22535 0.0 101329
21:00+20вюв22585 0.0 101311